sat.trackr.live / text

‹ back to catalog

KHAYYAM

NORAD 53370 · 2022-096A

PAYLOAD ACTIVE UNKNOWN

§ Identity

Operator
Country
IRAN
Launch date
2022-08-09
Launch site
TYMSC
Launch vehicle
Mass (kg)
RCS (m²)

External: N2YO · Heavens-Above · Gunter

§ Orbital elements

Epoch: 2026-05-25T04:56:53.507904Z

Period
94.39 min
Inclination
97.3461°
Eccentricity
0.0002632
Mean motion
15.25524858 rev/d
Perigee alt
487.4 km
Apogee alt
491.0 km
Semi-major
6,867.3 km
B*
1.8120e-4
RAAN
49.8423°
Arg perigee
97.2979°
Mean anomaly
262.8559°
Rev number
21,108

§ Raw data

KHAYYAM1 53370U 22096A   26145.20617486  .00004521  00000+0  18120-3 0  99952 53370  97.3461  49.8423 0002632  97.2979 262.8559 15.25524858211080

JSON: /api/v1/satellites/53370 · /tle

For live sub-satellite position, see the globe view (requires WebGL).

§ Visibility from observer

Set your observer location to see the next 7 days of passes ≥ 10°. The values pass through the URL so the page stays shareable.

No JS? Fill the form by hand. The geolocation button needs JavaScript.